Regional Weather Roundup
Issued by NWS

Home | Current Version | Previous Version | Graphics & Text | Print | Product List | Glossary On
Versions: 1 2 3 4 5 6 7 8 9 10 11 12 13 14 15 16 17 18 19 20 21 22 23 24 25 26 27 28 29 30 31 32 33 34 35 36 37 38 39 40 41 42 43 44 45 46 47 48 49 50
715
ASUS45 KSLC 141310
RWRUT

UTAH REGIONAL WEATHER ROUNDUP
NATIONAL WEATHER SERVICE SALT LAKE CITY UT
600 AM MST SUN FEB 14 2016

UTZ001>011-023>025-141400-

NORTHERN UTAH

CITY           SKY/WX    TMP DP  RH WIND       PRES   REMARKS
BRIGHAM CITY   CLOUDY    28  26  94 CALM      30.27R VSB 1
HILL AFB       SNOW      27  27 100 N8        30.25R VSB 1/4 WCI  18
LOGAN          LGT SNOW  26  24  92 S6        30.24R FOG     WCI  19
OGDEN          FOG       28  27  96 N6        30.25R VSB 1/4 WCI  22
PROVO AIRPORT  CLOUDY   N/A N/A N/A CALM      30.23R VSB<1/4
SALT LAKE CITY FOG       29  28  96 N8        30.25R VSB 1/4 WCI  21
VERNAL         CLOUDY    20  15  81 CALM      30.13F
WENDOVER       CLOUDY    28  27  93 W5        30.26R WCI  23
WEST JORDAN    CLOUDY    28  28 100 NW6       30.24R WCI  22

$$

UTZ012>022-026-027-141400-

SOUTHERN/CENTRAL UTAH

CITY           SKY/WX    TMP DP  RH WIND       PRES   REMARKS
BLANDING       MOCLDY    31  19  61 N8        30.22S WCI  23
BRYCE CANYON   MOCLDY    15   7  70 W7        30.21F WCI   5
CEDAR CITY     MOCLDY    17  13  84 CALM      30.17F
DELTA          CLOUDY    17  16  95 NE3       30.22F
HANKSVILLE     CLOUDY    30  30 100 CALM      30.17F
MILFORD        MOCLDY    11   8  88 S7        30.21R WCI   0
MOAB/CYNLANDS  CLOUDY    31  29  92 NE5       30.16R WCI  26
PRICE          MOCLDY    29  19  66 N7        30.13F WCI  22
ST GEORGE      CLOUDY    41  19  42 E7        30.18R

$$

REGIONAL REPORTS     COLORADO/ARIZONA

CITY           SKY/WX    TMP DP  RH WIND       PRES   REMARKS
CRAIG, CO      CLOUDY    12   8  84 CALM      30.15S
GRAND JUNCTION CLOUDY    28  25  88 CALM      30.18S
RIFLE          CLOUDY    21  17  84 S5        30.19S WCI  15
MONTROSE       CLOUDY    25  20  81 SE7       30.21R WCI  17
CORTEZ         CLOUDY    23  18  81 NE7       30.17R WCI  15
PAGE, AZ       PTCLDY    37  30  75 SE8       30.15S WCI  31
GRAND CANYON   PTCLDY    22  18  85 NE3       30.20F
KINGMAN        CLEAR     44  24  45 E9        30.12F
FLAGSTAFF      PTCLDY    20  15  81 CALM      30.20F

$$

REGIONAL REPORTS    NEVADA/IDAHO/WYOMING

CITY           SKY/WX    TMP DP  RH WIND       PRES   REMARKS
LAS VEGAS, NV  PTCLDY    51  19  28 SW7       30.06F
ELY            CLOUDY    17  11  77 S14       30.25R WCI   3
ELKO           CLOUDY    30  25  81 W7        30.22S WCI  23
POCATELLO, ID  CLOUDY    36  33  89 SW16      30.15F WCI  26
BURLEY         CLOUDY    36  34  92 SW18      30.15F WCI  26
EVANSTON, WY   CLOUDY    29  19  66 W10       30.16R WCI  20
ROCK SPRINGS   CLOUDY    31  21  66 W23G31    30.05F WCI  18

$$




USA.gov is the U.S. government's official web portal to all federal, state and local government web resources and services.